Weather History for Crestview, FL

Change the Weather History Date:

Saturday, June 15, 2013

  Actual Average Record
Temperature  
Mean Temperature 27 °C -  
Max Temperature 35 °C 32 °C 38 °C (1952)
Min Temperature 21 °C 19 °C 17 °C (1983)
Cooling Degree Days 16    
Growing Degree Days 31 (Base 50)    
Moisture  
Dew Point 21 °C    
Average Humidity 69    
Maximum Humidity 91    
Minimum Humidity 40    
Precipitation  
Precipitation 0.00 mm - - ()
Sea Level Pressure  
Sea Level Pressure 1016 hPa    
Wind  
Wind Speed 5 km/h (East)    
Max Wind Speed 16 km/h    
Max Gust Speed -    
Visibility 16 kilometers    
Events      
Averages and records for this station are not official NWS values.
T = Trace of Precipitation, MM = Missing Value Source: NWS Daily Summary

Daily Weather History Graph

Daily Weather History Graph

Search for Another Location

Airport:

Trip Planner

Search our weather history database for the weather conditions in past years. The results will help you decide how hot, cold, wet, or windy it might be!

Date:

Astronomy

Jun. 15, 2013 Rise Set
Actual Time 5:42 AM CDT 7:50 PM CDT
Civil Twilight 5:14 AM CDT 8:18 PM CDT
Nautical Twilight 4:41 AM CDT 8:52 PM CDT
Astronomical Twilight 4:04 AM CDT 9:28 PM CDT
Moon 11:53 AM CDT (6/15) No Moon Set
Length of Visible Light 15h 03m
Length of Day
14h 07m
Waxing Crescent, 40% of the Moon is Illuminated
Jun 15
Waxing Crescent
Jun 16
First Quarter
Jun 23
Full
Jun 29
Last Quarter
Jul 8
New

Hourly Weather History & Observations

Time (CDT) Temp. Heat Index Dew Point Humidity Pressure Visibility Wind Dir Wind Speed Gust Speed Precip Events Conditions
12:53 AM 22.2 °C - 19.4 °C 84% 1014.2 hPa 16.1 km Calm Calm - N/A   Partly Cloudy
1:53 AM 23.3 °C - 18.3 °C 73% 1014.1 hPa 16.1 km North 5.6 km/h / 1.5 m/s - 0.0 mm   Clear
2:53 AM 22.2 °C - 18.3 °C 78% 1014.0 hPa 16.1 km Calm Calm - N/A   Partly Cloudy
3:53 AM 21.1 °C - 18.3 °C 84% 1013.9 hPa 16.1 km Calm Calm - N/A   Partly Cloudy
4:53 AM 20.6 °C - 17.8 °C 84% 1014.5 hPa 16.1 km Calm Calm - N/A   Clear
5:53 AM 21.7 °C - 17.8 °C 78% 1015.3 hPa 16.1 km NE 7.4 km/h / 2.1 m/s - N/A   Clear
6:53 AM 22.8 °C - 18.9 °C 79% 1015.7 hPa 16.1 km ENE 7.4 km/h / 2.1 m/s - N/A   Clear
7:53 AM 25.6 °C - 20.6 °C 74% 1016.4 hPa 16.1 km Variable 7.4 km/h / 2.1 m/s - N/A   Scattered Clouds
8:53 AM 28.9 °C 31.6 °C 21.7 °C 65% 1016.8 hPa 16.1 km East 16.7 km/h / 4.6 m/s - N/A   Mostly Cloudy
9:53 AM 30.6 °C 34.2 °C 22.2 °C 61% 1016.9 hPa 16.1 km ESE 13.0 km/h / 3.6 m/s - N/A   Partly Cloudy
10:53 AM 31.7 °C 35.6 °C 22.2 °C 57% 1016.9 hPa 16.1 km Variable 9.3 km/h / 2.6 m/s - N/A   Clear
11:53 AM 32.2 °C 33.8 °C 19.4 °C 46% 1016.8 hPa 16.1 km Calm Calm - N/A   Overcast
12:53 PM 34.4 °C 36.1 °C 18.9 °C 40% 1016.3 hPa 16.1 km NE 7.4 km/h / 2.1 m/s - N/A   Scattered Clouds
1:53 PM 33.3 °C 35.2 °C 19.4 °C 44% 1016.0 hPa 16.1 km ESE 7.4 km/h / 2.1 m/s - N/A   Mostly Cloudy
2:53 PM 33.3 °C 36.0 °C 20.6 °C 47% 1015.9 hPa 16.1 km Calm Calm - N/A   Mostly Cloudy
3:53 PM 33.3 °C 36.9 °C 21.7 °C 50% 1015.6 hPa 16.1 km SSE 9.3 km/h / 2.6 m/s - N/A   Mostly Cloudy
4:53 PM 31.1 °C 35.3 °C 22.8 °C 61% 1015.6 hPa 16.1 km Variable 11.1 km/h / 3.1 m/s - N/A   Mostly Cloudy
5:53 PM 30.0 °C 35.0 °C 23.9 °C 70% 1015.4 hPa 16.1 km Variable 7.4 km/h / 2.1 m/s - N/A   Overcast
6:53 PM 28.9 °C 33.3 °C 23.9 °C 74% 1015.6 hPa 16.1 km Calm Calm - N/A   Scattered Clouds
7:53 PM 28.3 °C 31.9 °C 23.3 °C 74% 1016.1 hPa 16.1 km SSE 5.6 km/h / 1.5 m/s - N/A   Clear
8:53 PM 27.2 °C 30.1 °C 23.3 °C 79% 1016.3 hPa 16.1 km South 5.6 km/h / 1.5 m/s - N/A   Partly Cloudy
9:53 PM 26.1 °C - 23.3 °C 84% 1017.2 hPa 12.9 km Calm Calm - N/A   Mostly Cloudy
10:53 PM 25.6 °C - 23.3 °C 87% 1017.5 hPa 12.9 km Calm Calm - N/A   Mostly Cloudy
11:53 PM 24.4 °C - 22.8 °C 91% 1017.5 hPa 9.7 km Calm Calm - N/A   Partly Cloudy